Pagina principale
METAR-TAF:

METAR-TAF

Aeroporti :

Aeroporto di Lugano-Agno

Lugano, Svizzera

latitudine: 46-00N, longitudine: 008-58E, altezza: 273 m

Osservazione

Il bollettino è stato emesso 16 minuti fa, alle 01:50 UTC
Vento 1 kt da direzioni variabili
Temperature 3°C
Umidità 93%
Pressione 1020 hPa
Visibilità: 4400 m
foschia

METAR: LSZA 240150Z AUTO VRB01KT 4400 BR NCD 03/02 Q1020

Ora: 03:06 (02:06 UTC)

Previsione

Il bollettino è stato emesso 11 ore e 41 minuti fa, alle 14:25 UTC
Previsione valida dal 23 alle 15 UTC al 23 alle 24 UTC
Vento 5 kt da sud/sud-ovest
Visibilità: 9000 m

TAF: LSZA 231425Z 2315/2324 20005KT 9000 NSC

Osservazioni e previsioni meteorologiche di più di 4000 aeroporti (messaggi METAR e TAF).

Le stazioni disponibili sono rappresentate dai dischi gialli e rossi sulla carta.

Puntare il mouse per vedere il nome della stazione.

Clicca sopra per visualizzare le osservazioni e previsioni meteorologiche.

Per cambiare la mappa : fare clic sui pulsanti verdi con una croce nera per ingrandire, il pulsante verde con un trattino per diminuire, o sulla freccia verde per le mappe adiacenti.


METAR-TAF: